Regional Weather Roundup
Issued by NWS Midland/Odessa, TX

Home | Current Version | Previous Version | Text Only | Print | Product List | Glossary On
Versions: 1 2 3 4 5 6 7 8 9 10 11 12 13 14 15 16 17 18 19 20 21 22 23 24 25 26 27 28 29 30 31 32 33 34 35 36 37 38 39 40 41 42 43 44 45 46 47 48 49 50
000
ASUS44 KMAF 311210
RWRMAF
MIDLAND AREA WEATHER ROUNDUP
NATIONAL WEATHER SERVICE MIDLAND TX
700 AM CDT FRI JUL 31 2015

...IN SOUTHWEST TEXAS AND SOUTHEAST NEW MEXICO...

CITY           SKY/WX    TMP DP  RH WIND       PRES   REMARKS
ALPINE         CLEAR     62  51  69 SW6       30.31S
ANDREWS        FAIR      73  51  45 SW5       30.19R
ARTESIA        PTCLDY    70  68  94 NW10      30.24R
BIG SPRING     CLEAR     72  51  48 SE3       30.18R
CARLSBAD       PTCLDY    73  64  73 NW13      30.19S
DRYDEN           N/A     75  54  47 NW8       30.11R
FORT STOCKTON  CLEAR     73  51  46 S7        30.17R
GUAD PASS      CLEAR     73  49  42 MISG      30.33S
HOBBS          PTCLDY    68  59  73 CALM      30.22S
MARFA          CLEAR     57  52  82 N9        30.29R
MIDLAND AIRPK  CLEAR     78  53  41 CALM      30.18R
MIDLAND INTL   CLEAR     73  53  49 SW3       30.17R
ODESSA         CLEAR     76  50  40 S5        30.18R
PECOS          CLEAR     69  47  45 CALM      30.15R
PRESIDIO       FAIR      78  51  39 N10       30.13S
SEMINOLE       PTCLDY    71  59  65 CALM      30.21R
SNYDER         PTCLDY    74  63  69 S3        30.16R
WINK           PTCLDY    71  50  47 E7        30.15R
$$
...OTHER STATIONS IN TEXAS...

CITY           SKY/WX    TMP DP  RH WIND       PRES   REMARKS
ABILENE        CLEAR     76  62  62 S5        30.12R
AMARILLO       FOG       70  69  97 SE10      30.25S VSB 1/2
AUSTIN         MOCLDY    78  71  79 SW5       30.02R
BROWNSVILLE    PTCLDY    75  74  96 CALM      29.99S
CORPUS CHRISTI MOCLDY    76  72  87 CALM      30.00R
DALLAS FTW     PTCLDY    81  72  74 E5        30.06R
DEL RIO        CLEAR     77  63  61 NE7       30.05R
EL PASO        CLOUDY    73  66  78 N7        30.21F
HOUSTON INT    MOCLDY    79  76  90 N3        30.00R
LUBBOCK        PTCLDY    71  68  90 NE6       30.21R
SAN ANGELO     CLEAR     71  56  58 SW5       30.11R
SAN ANTONIO    CLOUDY    83  63  50 NW5       30.04S
WACO           CLEAR     77  71  82 CALM      30.03F
WICHITA FALLS  NOT AVBL
$$
...OTHER LOCATIONS IN NEW MEXICO...

CITY           SKY/WX    TMP DP  RH WIND       PRES   REMARKS
ALAMAGORDO     MOCLDY    68  64  88 NE5       30.27R
ALBUQUERQUE    CLOUDY    68  60  75 N3        30.35S
CANNON AFB     CLOUDY    67  64  92 N10       30.30S
CLOVIS         CLOUDY    66  63  88 N14       30.31F
HOLLOMAN AFB   MOCLDY    74  60  60 SW6       30.24S
ROSWELL        PTCLDY    70  63  78 N9        30.24R
RUIDOSO          N/A    N/A N/A N/A MISG        N/A
SANTA FE       CLOUDY    63  58  83 E3        30.41F
TRUTH OR CONSE CLOUDY    67  65  93 S6        30.31S
TUCUMCARI      LGT RAIN  67  64  90 S5        30.30R
$$


USA.gov is the U.S. government's official web portal to all federal, state and local government web resources and services.